{"data":{"norad_id":56400,"epoch":"2026-05-25T04:18:21.581280Z","epoch_age_seconds":52783,"freshness":"FRESH","line1":"1 56400U 23061AC  26145.17941645  .00000647  00000+0  33051-4 0  9994","line2":"2 56400  43.0046 114.9890 0001879 279.9733  80.0906 15.27575778168575","mean_motion":15.27575778,"eccentricity":0.0001879,"inclination_deg":43.0046,"raan_deg":114.989,"arg_perigee_deg":279.9733,"mean_anomaly_deg":80.0906,"bstar":3.3051e-5,"rev_number":16857,"period_min":94.267009253403,"perigee_km":481.77251901271,"apogee_km":484.35095749855,"semimajor_km":6861.1987382556,"source":"CELESTRAK","updated_at":"2026-05-25T13:38:18.015680Z"}}